[[{"header":{"parameterUnit":"m.s-1","parameterCategory":1,"la1":30.2991,"la2":30.254,"lo1":-89.0895,"lo2":-89.0444,"dy":0.0017,"dx":0.0017,"nx":28,"ny":28,"refTime":"2024-07-31T03:00:00:Z","depth":0,"parameterNumber":2,"parameterNumberName":"U-component_of_WINDS"},"data":[0,0,0,0,0,0,0,0,0,0,0,0,0,0,0,0,0,0,0,0,0,0,0,0,0,0,0,0,0,0,0,0,0,0,0,0,0,0,0,0,0,0,0,0,0,0,0,0,0,0,0,0,0,0,0,0,0,0,1.8541,1.8543,0,1.8702,1.8704,1.8706,1.8743,1.8742,1.8741,1.874,1.8902,1.8907,1.8912,0,0,0,0,0,0,0,0,0,0,0,0,0,1.8262,1.8267,1.8541,1.8543,1.8545,1.8702,1.8704,1.8706,1.8743,1.8742,1.8741,1.8739,1.89,1.8906,1.8913,0,0,0,0,0,0,0,0,0,0,0,0,0,1.8399,1.8269,1.8541,1.8582,1.8588,1.8701,1.8704,1.8707,1.8744,1.8742,1.874,1.8739,1.8898,1.8906,1.8914,1.8996,0,0,1.8938,1.8942,0,0,0,0,0,0,0,0,1.8391,1.8409,1.8574,1.858,1.8586,1.8701,1.8665,1.8804,1.8744,1.8684,1.874,1.8738,1.8836,1.8849,1.8883,1.9004,1.9011,1.8939,1.8944,1.8947,1.8949,0,0,0,0,0,0,0,1.8382,1.8402,1.8605,1.8577,1.8584,1.8592,1.861,1.8692,1.8767,1.8689,1.8692,1.8711,1.8839,1.8875,1.8887,1.9013,1.8939,1.8946,1.8951,1.8954,1.9209,1.9211,0,0,0,0,0,0,1.8365,1.8394,1.86,1.8609,1.8483,1.8598,1.8618,1.8666,1.8767,1.878,1.8712,1.8712,1.8862,1.8877,1.8893,1.8996,1.8947,1.8955,1.8959,1.9207,1.9209,1.9212,0,0,0,0,0,0,1.8359,1.8383,1.8593,1.8503,1.853,1.8605,1.8658,1.867,1.8706,1.8784,1.8797,1.8736,1.8861,1.8881,1.897,1.9002,1.8958,1.8965,1.9205,1.9208,1.921,1.9202,0,0,0,0,0,0,1.8351,1.8381,1.8414,1.8503,1.8535,1.8669,1.866,1.8674,1.872,1.8721,1.8809,1.8822,1.8862,1.8958,1.8978,1.9012,1.8972,1.9202,1.9206,1.921,1.92,1.9204,1.9208,0,0,0,0,0,1.8341,1.8404,1.8415,1.844,1.8578,1.867,1.8688,1.8733,1.8722,1.8755,1.8806,1.882,1.8995,1.8967,1.899,1.9026,1.92,1.9205,1.9209,1.9198,1.9203,1.9208,0,0,0,0,0,0,1.8316,1.8417,1.843,1.8525,1.8589,1.8677,1.872,1.8738,1.8805,1.8804,1.8856,1.8875,1.896,1.9002,1.8969,1.9111,1.9097,1.9107,1.9081,1.9087,1.9091,1.9079,1.8978,0,0,0,0,0,1.8321,1.8389,1.8474,1.8549,1.858,1.8644,1.8687,1.8716,1.8784,1.8811,1.8867,1.8932,1.9002,1.9047,1.9115,1.9206,1.9225,1.9243,1.9247,1.925,1.9257,1.9308,1.9316,1.9226,1.9226,1.9226,0,0,1.8333,1.8397,1.8436,1.8545,1.8599,1.8667,1.8667,1.8739,1.879,1.8821,1.8909,1.8953,1.9028,1.9118,1.9161,1.9156,1.9286,1.9256,1.9257,1.9263,1.9313,1.9322,1.9329,1.9229,1.9229,1.9228,0,0,1.839,1.8445,1.8514,1.8567,1.8648,1.869,1.8706,1.8792,1.8822,1.8911,1.8936,1.8996,1.9116,1.9168,1.9211,1.9287,1.9302,1.9307,1.9329,1.9378,1.9385,1.9392,1.9418,1.9427,1.9315,1.9315,1.9315,0,1.8394,1.8499,1.8546,1.8618,1.8664,1.8697,1.8766,1.8815,1.8914,1.8945,1.8938,1.9088,1.9141,1.9244,1.9262,1.9296,1.9315,1.9298,1.938,1.9387,1.9394,1.942,1.943,1.9315,1.9315,1.9315,1.9315,0,1.85,1.8572,1.8617,1.8713,1.8765,1.8834,1.8891,1.8938,1.8962,1.9005,1.9094,1.9159,1.9241,1.9268,1.9292,1.9374,1.9368,1.937,1.9357,1.9402,1.9427,1.9438,1.9315,1.9315,1.9315,1.9315,0,0,1.8545,1.8666,1.8682,1.8725,1.8816,1.8873,1.8943,1.9024,1.9063,1.9129,1.9189,1.9289,1.9292,1.934,1.937,1.9413,1.9469,1.941,1.9413,1.9418,1.9562,1.9559,1.957,1.9479,1.9481,1.9483,1.9556,0,1.8612,1.8741,1.8786,1.8892,1.8959,1.899,1.9052,1.9113,1.9155,1.9217,1.9262,1.9332,1.933,1.9359,1.9403,1.9452,1.9498,1.9448,1.9535,1.9537,1.9515,1.9584,1.9582,1.9647,1.9566,1.9567,1.9569,0,1.8709,1.8778,1.889,1.8973,1.9003,1.9057,1.9135,1.9194,1.9264,1.9291,1.9345,1.9372,1.9446,1.9428,1.9531,1.9496,1.9534,1.9563,1.9567,1.9576,1.9555,1.9595,1.9669,1.9678,1.9585,1.9583,1.9582,0,1.873,1.8851,1.8934,1.897,1.9068,1.9106,1.9148,1.9217,1.9263,1.9331,1.9361,1.9435,1.9476,1.9533,1.9579,1.9562,1.9677,1.9664,1.9701,1.97,1.9723,1.9721,1.9804,1.9748,1.9748,1.9748,1.9748,0,1.8801,1.8868,1.8945,1.8996,1.9072,1.9122,1.9196,1.924,1.9301,1.936,1.9392,1.9446,1.9504,1.9566,1.9603,1.9682,1.97,1.9723,1.9732,1.972,1.9717,1.9746,1.9742,1.9751,1.975,1.975,1.9749,0,1.8837,1.8891,1.8984,1.907,1.9093,1.9145,1.9218,1.9268,1.931,1.9385,1.9405,1.9472,1.9547,1.9598,1.9694,1.9719,1.9803,1.9812,1.978,1.9784,1.9818,1.9814,1.9922,1.9939,1.9872,1.9872,1.9873,0,1.8879,1.8932,1.9023,1.9066,1.9109,1.9176,1.9223,1.9274,1.9322,1.9406,1.9445,1.9522,1.9586,1.9704,1.976,1.9833,1.9843,1.9876,1.9855,1.9841,1.9843,1.984,1.9845,1.9879,1.988,1.988,1.9881,0,1.8946,1.897,1.9038,1.9114,1.917,1.9232,1.9294,1.9327,1.9389,1.944,1.9517,1.9567,1.9665,1.974,1.9819,1.9862,1.9881,1.9887,1.9899,1.9888,1.9867,1.9878,1.9788,1.9884,1.9884,1.9884,1.9883,1.9883,1.8987,1.9035,1.9107,1.9181,1.9233,1.9291,1.9342,1.9391,1.9456,1.9541,1.9566,1.9646,1.9714,1.9822,1.9866,1.9928,1.9926,1.9944,1.9948,1.9952,1.9951,1.9857,1.9943,1.9943,1.9943,1.9943,1.9943,0,1.9056,1.9104,1.9171,1.9258,1.9315,1.9329,1.9399,1.9446,1.9516,1.9579,1.9641,1.9729,1.9803,1.9865,1.994,1.9978,1.9989,1.9996,1.9994,2.0003,1.995,1.9931,1.9986,1.9986,1.9986,1.9986,1.9986,1.9986,1.9099,1.9181,1.9213,1.9321,1.9369,1.9448,1.9486,1.9539,1.9589,1.9686,1.9748,1.9788,1.985,1.993,1.9998,2.0014,2.004,2.0045,2.0064,2.0012,2.0007,2.0002,1.9985,2.0051,2.0051,2.0112,2.0113,2.0113]},{"header":{"parameterUnit":"m.s-1","parameterCategory":1,"la1":30.2991,"la2":30.254,"lo1":-89.0895,"lo2":-89.0444,"dy":0.0017,"dx":0.0017,"nx":28,"ny":28,"refTime":"2024-07-31T03:00:00:Z","depth":0,"parameterNumber":3,"parameterNumberName":"V-component_of_WINDS"},"data":[0,0,0,0,0,0,0,0,0,0,0,0,0,0,0,0,0,0,0,0,0,0,0,0,0,0,0,0,0,0,0,0,0,0,0,0,0,0,0,0,0,0,0,0,0,0,0,0,0,0,0,0,0,0,0,0,0,0,2.8535,2.8536,0,2.8623,2.8624,2.8625,2.8596,2.8594,2.8592,2.859,2.8676,2.868,2.8684,0,0,0,0,0,0,0,0,0,0,0,0,0,2.8334,2.8338,2.8535,2.8536,2.8537,2.8623,2.8625,2.8626,2.8596,2.8594,2.8592,2.8589,2.8675,2.868,2.8685,0,0,0,0,0,0,0,0,0,0,0,0,0,2.8422,2.834,2.8535,2.8533,2.8534,2.8623,2.8625,2.8626,2.8597,2.8594,2.8591,2.8588,2.8673,2.8679,2.8685,2.878,0,0,2.8704,2.8707,0,0,0,0,0,0,0,0,2.8417,2.8429,2.8532,2.8533,2.8534,2.8596,2.8585,2.8678,2.8597,2.8573,2.859,2.8587,2.8652,2.8659,2.8682,2.8784,2.8788,2.8705,2.8708,2.8711,2.8713,0,0,0,0,0,0,0,2.8411,2.8425,2.857,2.8534,2.8535,2.8526,2.8535,2.8603,2.8627,2.8575,2.8573,2.8584,2.8652,2.8676,2.8684,2.8789,2.8704,2.871,2.8714,2.8716,2.8971,2.8974,0,0,0,0,0,0,2.8405,2.8421,2.8567,2.8573,2.8468,2.8532,2.8542,2.8579,2.8626,2.8631,2.8586,2.8582,2.8667,2.8677,2.8687,2.88,2.8711,2.8717,2.872,2.8968,2.8971,2.8975,0,0,0,0,0,0,2.8401,2.8419,2.8564,2.8496,2.8514,2.8538,2.858,2.8582,2.8607,2.8635,2.8639,2.8607,2.8665,2.8678,2.8757,2.8802,2.8719,2.8725,2.8964,2.8969,2.8973,2.9027,0,0,0,0,0,0,2.8395,2.8417,2.8455,2.8497,2.8518,2.8635,2.8583,2.8586,2.8618,2.8614,2.8656,2.866,2.8664,2.8748,2.8763,2.8809,2.873,2.896,2.8966,2.8971,2.9021,2.9033,2.9043,0,0,0,0,0,2.8388,2.8467,2.8458,2.8475,2.8566,2.8637,2.8649,2.8653,2.8622,2.8659,2.8676,2.8659,2.8795,2.8756,2.8773,2.8822,2.8957,2.8964,2.8971,2.9016,2.9031,2.9043,0,0,0,0,0,0,2.8429,2.8472,2.8463,2.8558,2.8594,2.8632,2.868,2.8668,2.8714,2.8707,2.8709,2.8719,2.8799,2.8818,2.8775,2.8914,2.8871,2.8881,2.89,2.8913,2.8924,2.8918,2.8735,0,0,0,0,0,2.8449,2.8505,2.8539,2.8619,2.8638,2.8656,2.8687,2.8687,2.8724,2.8739,2.8763,2.8798,2.8848,2.8882,2.893,2.9023,2.9031,2.9064,2.9075,2.9084,2.9093,2.9141,2.9156,2.8998,2.8997,2.8997,0,0,2.8491,2.8522,2.8557,2.8628,2.8657,2.8712,2.8669,2.8731,2.8771,2.8748,2.8824,2.8842,2.8881,2.8967,2.9006,2.8985,2.9138,2.9093,2.91,2.9104,2.915,2.9165,2.9178,2.9002,2.9001,2.9001,0,0,2.8596,2.8626,2.8695,2.8724,2.8767,2.8778,2.8794,2.8834,2.8845,2.8922,2.8905,2.8952,2.9039,2.9067,2.9093,2.9205,2.919,2.922,2.9277,2.9324,2.9337,2.9348,2.9386,2.94,2.9229,2.923,2.923,0,2.8643,2.8729,2.8732,2.8794,2.8825,2.8807,2.8875,2.8902,2.8959,2.8979,2.8955,2.9063,2.9088,2.9179,2.9206,2.9228,2.9245,2.9216,2.9335,2.9346,2.9356,2.9393,2.9408,2.9233,2.9233,2.9232,2.9232,0,2.8783,2.8842,2.8892,2.8947,2.8983,2.9049,2.9059,2.9095,2.9091,2.9103,2.9179,2.9208,2.9261,2.9282,2.9279,2.9372,2.9358,2.9334,2.9291,2.9375,2.9409,2.9424,2.9238,2.9237,2.9236,2.9235,0,0,2.8919,2.8973,2.8992,2.9016,2.9061,2.9105,2.9167,2.922,2.925,2.9288,2.9339,2.9412,2.939,2.9419,2.9418,2.9459,2.9544,2.943,2.9431,2.945,2.9646,2.9664,2.968,2.9533,2.9536,2.9538,2.9643,0,2.9027,2.914,2.9143,2.9244,2.9297,2.9279,2.9333,2.9365,2.9377,2.9422,2.9434,2.9486,2.9453,2.947,2.951,2.9525,2.9583,2.9517,2.9579,2.9581,2.957,2.9699,2.9718,2.9816,2.9656,2.9659,2.966,0,2.917,2.9213,2.932,2.9355,2.9377,2.9426,2.9473,2.9517,2.9551,2.9557,2.9588,2.958,2.9641,2.9594,2.9677,2.9633,2.9657,2.9668,2.9672,2.9678,2.9626,2.9708,2.9847,2.9862,2.9682,2.968,2.9679,0,2.9257,2.9342,2.9416,2.9437,2.948,2.9515,2.9534,2.9565,2.9596,2.9635,2.9654,2.97,2.9726,2.976,2.9763,2.973,2.9846,2.9801,2.9851,2.9851,2.9877,2.9876,3.0022,2.9893,2.9893,2.9893,2.9892,0,2.9378,2.9444,2.9456,2.9502,2.9574,2.9575,2.9646,2.9662,2.969,2.9737,2.9722,2.9766,2.9768,2.9812,2.9814,2.9881,2.9893,2.9898,2.9898,2.9899,2.9899,2.9916,2.9909,2.9897,2.9896,2.9895,2.9894,0,2.9489,2.95,2.958,2.9613,2.9623,2.9674,2.9702,2.9744,2.9753,2.9813,2.9826,2.9841,2.9892,2.9898,2.9957,2.9959,3.0039,3.0032,3.0028,3.0027,3.0077,3.0072,3.024,3.0261,3.0119,3.012,3.0121,0,2.9566,2.9616,2.9655,2.9685,2.9706,2.9756,2.9787,2.9788,2.982,2.9861,2.9898,2.9947,2.9987,3.0069,3.0083,3.0127,3.0121,3.0177,3.0128,3.0127,3.0121,3.0118,3.0122,3.0186,3.0188,3.0189,3.019,0,2.9701,2.9703,2.9749,2.9795,2.9832,2.9869,2.9903,2.9928,2.9933,2.997,3.0022,3.0052,3.0112,3.016,3.0204,3.022,3.0206,3.0205,3.0219,3.0221,3.0217,3.0219,3.0054,3.0202,3.0201,3.02,3.0199,3.0199,2.9797,2.984,2.9873,2.9923,2.9949,2.998,3.0021,3.0036,3.0079,3.0129,3.0126,3.0183,3.0212,3.0269,3.0289,3.0332,3.0313,3.0333,3.0338,3.0344,3.0348,3.021,3.0339,3.0339,3.0339,3.0338,3.0338,0,2.9931,2.995,2.9996,3.0045,3.0083,3.0066,3.0102,3.0135,3.0186,3.0215,3.0254,3.0312,3.0358,3.0375,3.042,3.045,3.0445,3.0462,3.046,3.0463,3.0363,3.0346,3.0466,3.0466,3.0466,3.0466,3.0466,3.0466,3.0005,3.0076,3.0081,3.0164,3.0182,3.0239,3.0261,3.0288,3.0312,3.0378,3.0416,3.0427,3.0451,3.0496,3.0537,3.054,3.0557,3.0577,3.0578,3.0484,3.0471,3.0459,3.0443,3.0581,3.0581,3.0675,3.0676,3.0677]}]]